Theta_e
334 336 338 338 337 334 332 330 326 322 322 326 326 331 332 333 335 333 333 329 327 323 323 323 323 324 326 327 328 329 330 331 333 334 337 338 339 339
336 335 337 337 337 334 335 333 332 328 325 328 327 329 330 332 333 332 331 328 325 323 322 321 320 320 321 322 323 325 327 327 327 329 332 333 334 335
335 335 335 337 335 334 335 335 334 333 329 333 327 328 327 327 329 328 330 328 326 321 322 320 318 318 318 319 320 321 323 324 324 326 328 329 329 331
332 335 335 337 335 336 336 337 337 336 332 329 326 325 324 323 325 324 326 329 326 324 320 318 315 314 313 314 315 316 316 318 320 322 324 325 325 329
329 331 334 337 335 337 337 337 337 336 332 327 325 323 323 322 321 321 322 322 325 326 318 318 317 315 313 312 311 311 310 310 311 314 317 320 322 324
326 328 331 333 337 339 337 338 337 333 330 326 322 321 321 320 321 319 319 319 320 324 322 320 319 318 315 313 313 313 310 309 307 309 310 311 313 317
321 324 325 326 325 327 339 340 340 333 328 324 320 318 318 320 321 319 319 317 317 319 318 321 321 320 319 315 316 315 312 309 307 307 308 307 307 310
314 318 322 322 323 318 318 322 335 334 326 324 321 318 317 319 319 319 316 314 313 317 317 316 322 320 321 320 315 312 310 308 307 306 306 306 306 307
311 315 319 325 322 329 325 315 316 315 321 327 323 319 317 320 320 316 315 314 314 314 316 313 320 321 323 322 311 309 308 306 306 306 305 304 304 304
310 314 319 320 321 322 331 333 331 328 323 326 327 323 326 325 325 322 320 315 314 316 316 312 317 320 321 322 308 307 306 304 303 303 304 303 302 302
311 315 318 319 313 306 324 332 330 324 310 308 310 310 307 305 314 320 315 314 313 317 319 314 317 319 320 319 319 307 304 302 302 302 302 302 302 302
309 314 310 314 308 305 320 332 326 322 318 318 317 310 310 310 306 320 317 313 312 315 321 317 316 317 315 319 317 315 313 304 302 301 301 302 301 310
309 313 318 305 303 302 303 329 324 321 316 320 318 317 316 315 317 320 318 317 314 314 317 321 317 316 313 312 317 317 316 311 311 308 301 300 300 309
309 315 316 303 302 299 304 307 304 312 320 317 316 315 312 313 316 317 317 318 319 319 321 323 318 317 315 314 314 317 316 317 315 314 313 305 300 300
309 309 303 300 299 301 301 305 304 320 318 317 316 316 312 313 315 317 317 318 319 323 324 323 320 318 317 314 313 315 314 316 317 317 316 314 313 310
305 308 308 306 304 312 305 306 322 320 319 319 318 316 316 317 318 320 316 315 316 316 320 322 322 322 319 317 316 315 317 314 317 318 319 318 318 317
311 312 311 312 315 315 316 320 320 318 317 316 317 317 317 317 317 318 316 318 317 315 314 318 320 322 322 320 318 318 317 316 315 317 317 317 319 319
310 312 313 316 318 319 319 318 319 313 314 314 315 315 316 316 316 317 318 317 316 315 314 316 318 319 319 318 314 315 315 314 313 313 317 316 317 320
311 316 319 320 320 321 321 319 317 315 314 314 313 312 313 315 313 316 317 316 315 315 315 314 313 311 306 305 310 300 316 311 311 310 316 317 315 319
315 320 320 321 321 320 320 319 317 315 315 313 313 313 313 312 313 314 314 315 313 310 311 314 313 312 309 310 310 308 292 310 308 307 308 310 312 300
320 319 320 321 320 319 318 317 317 315 314 314 314 315 315 315 313 314 311 299 304 312 311 312 313 295 315 313 311 308 309 296 303 311 312 312 312 312
319 318 319 319 318 317 317 317 315 314 315 315 313 317 317 315 312 310 310 308 310 310 309 311 313 311 310 309 309 309 312 310 301 298 298 301 307 305
318 318 318 318 317 317 317 316 316 315 315 315 314 312 312 312 312 314 316 315 315 315 314 313 312 309 308 308 306 306 304 304 305 305 305 300 300 299
Wind_Speed
10 10 9 8 6 7 7 5 6 8 12 5 4 4 3 4 6 5 6 6 10 9 8 7 8 8 8 9 9 10 10 12 12 12 12 12 14 13
7 10 10 9 9 7 7 5 5 9 13 4 6 4 1 2 5 5 5 6 9 8 8 8 9 8 7 8 9 10 10 11 11 12 11 11 10 11
7 10 12 12 8 9 4 5 9 9 11 9 4 2 2 3 3 4 5 5 4 7 7 7 8 8 7 8 9 10 11 10 10 11 12 10 10 10
8 8 11 8 11 6 6 12 10 9 9 11 3 2 4 1 4 4 3 2 3 5 5 7 7 6 6 7 8 10 9 10 10 11 11 10 10 11
7 10 11 9 10 8 8 8 8 5 7 5 5 1 3 2 2 2 2 2 2 3 2 5 8 6 7 9 10 10 10 10 8 11 11 10 10 11
8 9 9 10 11 10 8 10 4 5 5 7 3 4 4 2 3 3 2 1 3 3 4 5 7 5 7 8 10 11 10 10 9 10 9 9 10 11
7 7 8 10 12 13 10 10 8 7 6 7 4 3 3 2 6 3 3 2 3 3 2 2 3 2 2 6 9 10 9 8 8 8 8 9 10 12
8 10 10 11 11 13 15 20 13 11 11 8 4 4 4 4 4 4 4 3 3 3 4 3 4 3 2 3 6 8 8 8 8 7 8 10 11 12
8 10 11 9 10 11 13 14 14 15 12 12 10 6 6 8 7 5 5 4 4 2 3 2 4 3 3 4 9 9 8 8 9 9 9 11 12 13
10 12 12 12 12 11 13 10 11 11 12 8 9 7 7 8 10 8 7 4 2 1 3 4 3 3 2 2 3 7 7 8 9 9 10 11 12 13
10 11 11 11 14 15 12 13 10 6 3 2 2 8 8 11 9 6 4 4 3 3 4 3 3 2 2 2 3 3 4 6 7 7 8 10 11 12
9 10 14 13 15 18 12 11 10 9 8 6 4 6 6 4 8 4 6 4 3 2 4 4 2 3 1 1 1 2 1 4 5 5 7 8 9 4
8 8 8 11 16 17 18 12 13 11 8 7 4 5 3 4 3 3 4 4 4 3 4 4 2 3 1 1 1 3 3 2 2 2 5 6 9 9
11 9 8 13 15 14 10 9 12 11 7 7 6 4 3 3 3 3 4 4 3 3 6 5 2 3 3 2 2 1 2 2 2 2 3 3 5 6
10 13 15 16 12 6 10 15 11 7 7 7 7 4 3 4 4 3 3 3 3 3 3 4 3 4 3 3 2 2 1 2 3 3 2 3 3 3
12 12 13 11 8 9 6 8 5 6 8 7 6 5 3 3 2 2 2 2 2 2 2 4 3 3 3 3 3 2 3 2 2 3 3 2 3 4
7 8 8 6 8 5 4 5 5 6 6 5 7 6 4 3 2 2 2 2 2 2 1 1 3 3 3 3 2 3 2 2 3 3 3 4 4 5
5 8 8 8 11 10 9 8 6 6 5 6 6 5 5 5 3 2 2 2 3 2 1 0 2 1 0 1 2 2 1 1 1 3 3 3 4 4
9 10 10 10 10 9 9 9 7 6 7 6 6 5 4 4 4 2 2 2 2 3 2 2 2 2 2 1 1 10 2 1 1 1 2 4 3 4
12 9 10 11 10 10 8 8 7 7 6 6 6 6 5 5 4 3 3 3 3 2 2 2 2 3 4 3 2 2 10 2 3 2 3 2 3 3
9 10 10 9 10 8 8 8 9 7 7 6 5 5 5 5 3 3 3 2 4 2 3 2 0 1 3 3 3 2 3 10 7 4 3 2 3 3
8 10 10 11 10 9 9 8 8 8 6 5 5 5 4 4 4 4 4 3 3 3 3 3 2 2 3 2 1 2 2 2 5 9 9 6 3 5
8 8 9 10 10 9 9 8 8 7 6 5 5 4 4 4 4 4 3 3 4 4 3 3 2 2 2 3 3 5 5 3 3 3 3 4 5 5
Wind_Direction
245 232 223 236 237 233 222 191 208 282 282 269 274 254 217 170 209 191 200 180 192 188 203 226 241 236 239 247 232 233 236 236 228 227 215 218 216 226
242 241 233 232 230 210 220 187 202 237 271 194 252 261 125 202 189 181 178 173 186 183 202 225 235 229 235 244 238 236 234 234 226 222 212 212 219 221
257 244 236 233 227 220 205 218 232 225 239 274 263 304 269 169 162 178 162 175 182 194 209 229 240 235 237 245 244 240 239 233 221 218 215 209 216 219
281 268 256 251 239 225 225 234 229 209 223 246 226 244 265 225 149 148 140 165 174 194 219 237 239 237 241 246 244 241 240 233 221 214 208 214 210 201
273 274 275 258 266 256 232 232 222 217 208 237 243 149 265 208 132 102 165 167 188 163 206 243 250 246 257 257 256 247 247 240 221 219 211 205 199 192
266 263 273 274 268 267 268 269 208 220 207 223 213 168 221 199 102 141 199 190 200 203 212 221 237 247 248 253 256 251 246 243 223 216 211 209 194 183
264 271 279 282 290 279 264 254 226 224 222 203 208 160 188 164 190 170 185 161 242 199 204 221 231 220 235 243 254 246 241 233 226 213 212 210 203 190
287 284 280 278 277 269 253 244 230 214 218 213 193 178 192 158 148 173 152 144 242 204 166 245 190 218 217 203 228 235 224 233 225 219 202 213 209 193
276 283 283 279 283 292 272 238 226 210 207 196 200 175 165 181 144 163 180 171 194 214 124 216 197 217 188 212 216 214 223 227 228 221 217 212 209 200
261 266 264 274 276 269 279 258 240 224 221 208 206 178 186 173 183 181 182 147 76 132 155 205 195 200 159 199 211 214 227 226 221 220 217 218 212 208
254 260 258 268 271 268 264 252 241 199 89 273 169 169 166 172 153 124 137 123 206 219 195 174 191 157 175 214 203 207 238 239 226 222 223 218 216 209
268 258 256 250 261 263 248 235 214 206 163 142 127 85 107 133 151 132 144 158 144 200 199 184 139 139 281 217 186 205 214 245 233 228 228 224 204 193
269 274 266 261 261 261 219 209 206 164 148 120 127 111 141 126 137 188 178 149 169 223 200 155 144 123 170 207 245 201 185 190 215 217 218 210 192 199
260 263 267 270 268 240 214 191 162 137 137 128 139 136 141 142 154 161 183 194 209 185 171 139 140 150 155 169 240 161 205 216 208 234 198 166 192 256
250 253 258 268 250 222 219 171 142 133 149 156 159 146 142 148 140 115 88 117 149 147 129 154 137 159 172 185 182 190 191 231 207 214 197 185 190 180
241 251 248 248 207 210 131 151 154 160 168 154 141 102 119 129 122 149 158 168 121 66 78 177 199 160 188 206 180 187 206 245 197 210 218 207 206 206
227 247 235 191 188 178 127 160 145 149 141 126 125 146 135 130 149 168 153 105 83 113 122 195 207 209 216 170 207 219 206 227 218 196 195 239 231 223
243 220 203 185 181 186 179 160 168 150 137 127 138 143 151 157 154 146 98 111 137 144 136 307 149 118 354 304 50 245 246 257 282 208 215 240 259 222
231 213 191 177 161 167 166 171 159 152 134 138 144 144 151 141 149 130 126 137 144 173 210 186 173 142 127 242 340 39 256 242 348 19 243 239 278 293
217 179 171 152 149 154 170 147 136 134 143 140 135 156 150 148 148 159 176 175 161 167 176 165 193 177 163 197 150 82 19 75 33 355 343 308 264 305
175 155 157 159 147 145 153 144 141 152 146 137 147 146 143 138 138 183 170 170 151 151 141 143 121 273 110 84 72 69 75 33 51 30 335 328 343 353
148 147 147 143 145 144 147 133 138 139 143 138 146 129 132 142 157 153 148 164 175 148 118 103 86 67 65 85 101 99 72 69 69 68 59 56 4 10
135 135 139 133 130 145 130 140 138 141 138 142 123 135 138 150 158 161 159 161 138 119 115 113 95 68 76 72 66 61 57 23 17 27 39 46 43 351